www.pogodaiklimat.ru

Погода и климат >> Архив погоды >> Австралия >> Южная Австралия >> Кубер-Педи


ПОГОДА в Кубер-Педи

  • Прогноз погоды в Кубер-Педи
  • Монитор погоды в Кубер-Педи

АРХИВ ПОГОДЫ в Кубер-Педи

Время (UTC), дата Ветер
(напр.,м/с)
 
Видим.   Явления Облачность Т
(С)
Тd
(С)
f
(%)
Тe
(С)
Тes
(С)
Комфортность P
(гПа)
Po
(гПа)
Тmin
(С)
Tmax
(С)
R
(мм)
R24
(мм)
S
(см)
13 15.09 С 5 н/о н/о +22.9 -6.9 13 +21 +21 комфорт 1016.1 989.7
14 15.09 СВ 6 н/о н/о +22.8 -7.0 13 +21 +21 комфорт 1016.1 989.7 +35.0
15 15.09 С 6 н/о н/о +22.2 -7.5 13 +20 +20 1015.9 989.5
16 15.09 СЗ 3 н/о н/о +18.8 -8.3 15 +19 +19 1016.1 989.7
17 15.09 З 5 н/о 8/0
[]
+20.8 -6.7 15 +20 +20 1016.1 989.7
18 15.09 З 6 н/о н/о +20.8 -7.6 14 +20 +20 1015.8 989.4
19 15.09 Ю 4 н/о н/о +17.3 -3.4 24 +17 +17 1016.2 989.8
20 15.09 Ю 7 н/о н/о +17.4 +3.3 39 +17 +17 1016.8 990.4
21 15.09 Ю 5 н/о н/о +15.7 +4.7 48 +15 +15 1017.1 990.7
22 15.09 Ю 7 н/о н/о +16.1 +8.8 62 +15 +15 1017.8 991.4
23 15.09 Ю 9 н/о н/о +18.1 +10.2 60 +17 +17 1018.4 991.9
00 16.09 Ю 9 н/о н/о +20.0 +10.4 54 +21 +21 комфорт 1019.3 992.8
01 16.09 Ю 8 н/о н/о +21.7 +9.9 47 +23 +23 комфорт 1019.2 992.7
02 16.09 Ю 8 н/о н/о +23.4 +10.5 44 +25 +25 комфорт 1019.3 992.8 +15.6
03 16.09 Ю 8 н/о н/о +24.5 +10.0 40 +25 +25 комфорт 1019.2 992.7
04 16.09 Ю 9 н/о н/о +25.4 +9.3 36 +26 +26 жарко 1018.9 992.4
05 16.09 Ю 9 н/о н/о +26.3 +8.8 33 +27 +27 жарко 1018.7 992.2
06 16.09 Ю 9 н/о н/о +25.9 +8.8 34 +26 +26 жарко 1018.5 992.0
07 16.09 Ю 9 н/о н/о +25.6 +8.1 33 +26 +26 жарко 1018.7 992.2
08 16.09 Ю 10 н/о н/о +24.4 +6.6 32 +24 +24 комфорт 1019.2 992.7
09 16.09 Ю 10 н/о н/о +22.5 +5.4 33 +23 +23 комфорт 1020.0 993.5
10 16.09 Ю 8 н/о н/о +20.9 +2.7 30 +21 +21 комфорт 1021.0 994.5
11 16.09 Ю 7 н/о н/о +19.7 +1.7 30 +19 +19 1022.1 995.5
12 16.09 Ю 8 н/о н/о +18.5 +1.5 32 +18 +18 1022.7 996.1
13 16.09 ЮВ 9 н/о н/о +16.6 +1.5 36 +15 +15 1023.1 996.5
14 16.09 ЮВ 6 н/о н/о +15.5 +1.6 39 +14 +14 1023.2 996.6 +27.2
15 16.09 ЮВ 9 н/о н/о +14.1 +4.4 52 +12 +12 1023.2 996.6
16 16.09 ЮВ 8 н/о н/о +12.8 +4.0 55 +10 +10 1023.2 996.6
17 16.09 ЮВ 8 н/о н/о +12.0 +2.7 53 +9 +9 1022.9 996.3
18 16.09 ЮВ 8 н/о н/о +11.1 +2.2 54 +8 +8 1022.6 996.0
19 16.09 ЮВ 7 н/о н/о +10.3 +2.9 60 +7 +7 1022.7 996.1
20 16.09 ЮВ 7 н/о н/о +9.6 +3.4 65 +6 +6 1023.0 996.4
21 16.09 ЮВ 6 н/о н/о +9.0 +3.2 67 +5 +5 1023.8 997.2
22 16.09 ЮВ 7 н/о н/о +10.1 +3.2 62 +7 +7 1024.4 997.8
23 16.09 В 9 н/о н/о +12.0 +2.2 51 +9 +9 1024.9 998.3
00 17.09 В 8 н/о н/о +13.7 +1.4 43 +11 +11 1025.3 998.7
01 17.09 В 7 н/о н/о +15.9 +1.2 37 +14 +14 1025.2 998.6
02 17.09 В 7 н/о н/о +17.5 +0.6 32 +17 +17 1024.8 998.2 +9.1
03 17.09 СВ 6 н/о н/о +18.8 -0.1 28 +18 +18 1024.1 997.5
04 17.09 СВ 7 н/о н/о +20.0 -1.2 24 +20 +20 1023.0 996.4
05 17.09 СВ 5 н/о н/о +22.0 -1.3 21 +21 +21 комфорт 1022.4 995.8
06 17.09 СВ 5 н/о н/о +22.3 -2.4 19 +21 +21 комфорт 1021.4 994.9
07 17.09 СВ 5 н/о н/о +22.8 -2.7 18 +21 +21 комфорт 1021.5 995.0
08 17.09 В 5 н/о н/о +22.3 -3.1 18 +21 +21 комфорт 1021.6 995.1
09 17.09 В 4 н/о н/о +20.8 -3.6 19 +21 +21 комфорт 1022.1 995.5
10 17.09 В 6 н/о н/о +18.8 -5.3 19 +18 +18 1022.7 996.1
11 17.09 В 6 н/о н/о +17.3 -5.8 20 +17 +17 1023.2 996.6
12 17.09 В 8 н/о н/о +16.3 -5.4 22 +15 +15 1023.6 997.0
13 17.09 СВ 8 н/о н/о +15.0 -5.4 24 +13 +13 1023.7 997.1
14 17.09 СВ 7 н/о н/о +14.2 -5.0 26 +12 +12 1023.3 996.7
15 17.09 СВ 7 н/о н/о +14.0 -4.7 27 +12 +12 1023.1 996.5
16 17.09 СВ 7 н/о н/о +13.8 -4.8 27 +12 +12 1023.0 996.4
17 17.09 СВ 8 н/о н/о +13.5 -5.1 27 +11 +11 1022.0 995.4
18 17.09 СВ 7 н/о н/о +12.3 -5.7 28 +10 +10 1021.8 995.3
19 17.09 СВ 8 н/о н/о +11.8 -6.6 27 +9 +9 1021.6 995.1
20 17.09 СВ 8 н/о 1/0
[]
+10.4 -6.8 29 +7 +7 1022.2 995.6
21 17.09 СВ 7 н/о н/о +8.0 -8.1 31 +4 +4 1022.4 995.8
22 17.09 СВ 7 н/о н/о +9.8 -7.8 28 +7 +7 1022.6 996.0
23 17.09 СВ 11 н/о 8/0
[]
+13.4 -7.9 22 +11 +11 1022.9 996.3
00 18.09 СВ 11 н/о н/о +16.6 -8.5 17 +15 +15 1023.0 996.4
01 18.09 СВ 12 н/о н/о +20.0 -8.3 14 +19 +19 1022.1 995.5
02 18.09 СВ 12 н/о 6/0
[]
+21.6 -8.0 13 +20 +20 1020.8 994.3
03 18.09 С 12 н/о н/о +23.2 -8.9 11 +21 +21 комфорт 1019.9 993.4
04 18.09 СВ 11 н/о н/о +24.8 -7.6 11 +22 +22 комфорт 1018.6 992.1
05 18.09 С 11 н/о н/о +26.0 -6.7 11 +23 +23 комфорт 1017.6 991.2
06 18.09 СВ 11 н/о н/о +27.0 -5.9 11 +24 +24 комфорт 1016.7 990.3
07 18.09 СВ 11 н/о н/о +26.4 -6.4 11 +24 +24 комфорт 1015.9 989.5
08 18.09 СВ 11 н/о н/о +26.0 -6.7 11 +23 +23 комфорт 1016.1 989.7
09 18.09 СВ 10 н/о н/о +24.0 -9.5 10 +22 +22 комфорт 1015.8 989.4
10 18.09 СВ 10 н/о н/о +22.6 -9.3 11 +20 +20 1016.2 989.8
11 18.09 СВ 10 н/о 1/0
[]
+21.9 -9.9 11 +20 +20 1016.6 990.2
12 18.09 СВ 10 н/о н/о +19.6 -11.6 11 +18 +18 1016.2 989.8
13 18.09 СВ 10 н/о н/о +18.4 -12.6 11 +17 +17 1016.2 989.8
14 18.09 СВ 10 н/о н/о +17.4 -13.3 11 +16 +16 1015.7 989.3 +27.5
15 18.09 СВ 10 н/о н/о +16.9 -12.6 12 +15 +15 1015.0 988.6
16 18.09 СВ 11 н/о н/о +16.9 -13.7 11 +15 +15 1014.3 987.9
17 18.09 СВ 10 н/о 9/0
[]
+16.3 -13.1 12 +15 +15 1013.5 987.2
18 18.09 СВ 9 н/о н/о +15.2 -14.0 12 +13 +13 1013.3 987.0
19 18.09 СВ 10 н/о н/о +15.0 -14.1 12 +13 +13 1013.1 986.8
20 18.09 СВ 9 н/о н/о +14.0 -13.9 13 +12 +12 1013.4 987.1
21 18.09 СВ 9 н/о н/о +13.4 -14.4 13 +11 +11 1013.5 987.2
22 18.09 СВ 10 н/о н/о +14.9 -14.2 12 +13 +13 1013.6 987.3
23 18.09 СВ 12 н/о н/о +18.5 -13.6 10 +17 +17 1013.5 987.2
00 19.09 С 13 н/о н/о +23.4 -12.7 8 +20 +20 1012.9 986.6
01 19.09 С 13 н/о н/о +28.4 -9.0 8 +25 +25 комфорт 1012.0 985.7
05 19.09 С 12 н/о н/о +37.3 -4.2 7 +33 +33 жарко 1005.9 979.8
06 19.09 С 11 н/о н/о +36.3 -5.0 7 +32 +32 жарко 1005.6 979.5
07 19.09 С 12 н/о н/о +36.1 -5.1 7 +32 +32 жарко 1005.1 979.0
08 19.09 С 12 н/о 10/0
[]
+35.1 -5.8 7 +31 +31 жарко 1005.1 979.0
09 19.09 С 9 н/о н/о +33.5 -5.2 8 +29 +29 жарко 1005.4 979.3
10 19.09 С 10 н/о н/о +32.6 -5.9 8 +29 +29 жарко 1005.4 979.3
11 19.09 С 8 н/о 9/0
[]
+30.6 -5.8 9 +27 +27 жарко 1005.7 979.6
12 19.09 С 10 н/о н/о +28.8 -7.2 9 +25 +25 комфорт 1005.6 979.5
13 19.09 С 9 н/о н/о +28.4 -6.1 10 +25 +25 комфорт 1006.0 979.9
14 19.09 З 8 н/о 10/0
[]
+26.8 +0.5 18 +25 +25 комфорт 1007.7 981.5
15 19.09 Ю 11 н/о н/о +20.8 +7.1 41 +21 +21 комфорт 1008.3 982.1
16 19.09 Ю 13 н/о н/о +19.0 +8.9 52 +18 +18 1008.9 982.7
17 19.09 Ю 12 н/о 9/0
[]
+17.9 +7.6 51 +16 +16 1009.0 982.8
18 19.09 Ю 12 н/о н/о +16.8 +8.5 58 +15 +15 1009.0 982.8
19 19.09 Ю 13 н/о н/о +16.0 +8.7 62 +14 +14 1009.9 983.7
20 19.09 Ю 13 н/о 10/0
[]
+15.1 +8.3 64 +12 +12 1011.2 984.9
21 19.09 Ю 13 н/о н/о +14.4 +6.5 59 +11 +11 1011.9 985.6
22 19.09 Ю 12 н/о н/о +14.2 +7.3 63 +11 +11 1012.8 986.5
23 19.09 Ю 12 н/о 10/10 600 м
[]
+14.3 +8.7 69 +11 +11 1014.6 988.2
00 20.09 ЮЗ 12 н/о н/о +13.6 +10.0 79 +10 +10 1014.0 987.7
01 20.09 ЮЗ 13 н/о н/о +13.7 +6.8 63 +10 +10 1013.9 987.6
02 20.09 ЮЗ 12 н/о 10/10 600 м
[]
+14.2 +6.3 59 +11 +11 1015.3 988.9
03 20.09 ЮЗ 13 н/о н/о +16.2 +6.3 52 +14 +14 1014.7 988.3
04 20.09 ЮЗ 13 н/о н/о +15.2 +5.1 51 +13 +13 1014.8 988.4
05 20.09 ЮЗ 12 н/о 10/10 300 м
[]
+12.6 +6.4 66 +9 +9 1015.2 988.8
06 20.09 ЮЗ 10 н/о н/о +10.1 +7.9 86 +6 +6 1015.3 988.9
07 20.09 ЮЗ 7 н/о н/о +10.3 +9.1 92 +7 +7 1016.3 989.9
08 20.09 ЮЗ 8 н/о {туман} 10/10 300 м
[]
+11.4 +9.0 85 +8 +8 1016.7 990.3
09 20.09 ЮЗ 6 н/о н/о +11.8 +7.9 77 +9 +9 1017.6 991.2
10 20.09 ЮЗ 6 н/о н/о +11.1 +7.0 76 +8 +8 1018.4 991.9
11 20.09 ЮЗ 7 н/о {туман} н/о +11.0 +6.9 76 +8 +8 1019.4 992.9 0.8
12 20.09 ЮЗ 7 н/о н/о +10.0 +5.8 75 +6 +6 1019.9 993.4
13 20.09 ЮЗ 6 н/о н/о +9.0 +5.9 81 +5 +5 1019.9 993.4
14 20.09 ЮЗ 5 н/о н/о +7.7 +5.8 88 +4 +4 1020.0 993.5 +30.5
15 20.09 ЮЗ 6 н/о н/о +8.0 +5.1 82 +4 +4 1019.9 993.4
16 20.09 ЮЗ 5 н/о н/о +6.8 +4.5 85 +3 +3 1020.2 993.7
17 20.09 З 5 н/о н/о +5.8 +4.0 88 +2 +2 1020.2 993.7
18 20.09 З 6 н/о н/о +6.0 +3.8 86 +1 +1 1020.3 993.8
19 20.09 З 5 н/о н/о +4.8 +3.5 91 0 0 1020.7 994.2
20 20.09 ЮЗ 5 н/о н/о +4.7 +3.4 91 0 0 1021.1 994.6
21 20.09 ЮЗ 5 н/о н/о +4.6 +3.4 92 -0 -0 1022.0 995.4
22 20.09 З 5 н/о н/о +6.2 +4.2 87 +2 +2 1023.0 996.4
23 20.09 ЮЗ 7 н/о н/о +9.4 +5.4 76 +6 +6 1023.8 997.2 0.8
00 21.09 ЮЗ 8 н/о н/о +11.3 +4.1 61 +8 +8 1024.5 997.9
01 21.09 ЮЗ 8 н/о н/о +12.8 +3.2 52 +10 +10 1024.5 997.9
02 21.09 ЮЗ 6 н/о в посл. час дождь {туман} 1/1 1000 м
[]
+13.8 +1.8 44 +12 +12 1024.3 997.7 +4.7
03 21.09 ЮЗ 7 н/о н/о +14.9 +1.4 40 +13 +13 1024.0 997.4
04 21.09 ЮЗ 7 н/о н/о +15.3 +1.1 38 +14 +14 1023.6 997.0
05 21.09 ЮЗ 6 н/о {туман} 10/0
[]
+15.9 +0.5 35 +15 +15 1023.1 996.5 0.2
06 21.09 ЮЗ 5 н/о н/о +16.8 +0.5 33 +16 +16 1022.7 996.1
07 21.09 Ю 5 н/о н/о +16.1 -0.6 32 +15 +15 1022.7 996.1
08 21.09 ЮЗ 6 н/о н/о +15.8 -0.4 33 +15 +15 1023.1 996.5
09 21.09 ЮЗ 5 н/о н/о +14.7 -1.0 34 +14 +14 1023.8 997.2
10 21.09 ЮЗ 3 н/о н/о +13.3 -1.1 37 +12 +12 1024.3 997.7
11 21.09 З 2 н/о н/о +11.8 -1.0 41 +12 +12 1025.1 998.5
12 21.09 З 2 н/о н/о +10.5 -1.2 44 +10 +10 1025.5 998.9
13 21.09 З 2 н/о н/о +9.7 -1.3 46 +9 +9 1025.7 999.1
14 21.09 З 3 н/о н/о +8.9 -1.5 48 +7 +7 1025.9 999.2 +17.2
15 21.09 З 3 н/о н/о +8.6 -1.5 49 +7 +7 1026.0 999.3
16 21.09 Ю 2 н/о н/о +7.4 -1.5 53 +6 +6 1025.9 999.2
17 21.09 Ю 3 н/о н/о +8.3 +0.1 56 +6 +6 1025.3 998.7
18 21.09 ЮВ 3 н/о н/о +8.0 +0.7 60 +6 +6 1025.2 998.6
19 21.09 ЮВ 3 н/о н/о +8.4 +2.4 66 +6 +6 1025.6 999.0
20 21.09 ЮВ 3 н/о н/о +8.4 +2.4 66 +6 +6 1026.4 999.7
21 21.09 ЮВ 3 н/о н/о +6.0 +0.1 66 +3 +3 1027.1 1000.4
22 21.09 В 3 н/о н/о +10.3 +2.9 60 +8 +8 1027.9 1001.2
23 21.09 ЮВ 3 н/о н/о +12.6 +3.3 53 +11 +11 1028.7 1002.0 0.2
00 22.09 СВ 1 н/о н/о +15.1 +3.3 45 +16 +16 1029.2 1002.5
01 22.09 З 3 н/о н/о +15.7 +1.8 39 +16 +16 1029.3 1002.6
02 22.09 З 5 н/о н/о +17.6 -0.6 29 +17 +17 1029.0 1002.3 +5.8
03 22.09 ЮЗ 4 н/о н/о +18.2 -0.6 28 +18 +18 1028.1 1001.4
04 22.09 ЮЗ 5 н/о н/о +19.4 -0.1 27 +19 +19 1027.4 1000.7
05 22.09 ЮЗ 5 н/о н/о +20.2 -0.4 25 +20 +20 1026.5 999.8
06 22.09 З 6 н/о н/о +20.6 -1.2 23 +20 +20 1026.1 999.4
07 22.09 ЮЗ 6 н/о н/о +19.9 -1.2 24 +20 +20 1026.1 999.4
08 22.09 ЮЗ 6 н/о н/о +19.6 -0.9 25 +19 +19 1026.6 999.9
09 22.09 ЮЗ 6 н/о н/о +18.3 -1.5 26 +18 +18 1027.2 1000.5
10 22.09 ЮЗ 3 н/о н/о +16.7 -1.4 29 +17 +17 1027.9 1001.2
11 22.09 ЮЗ 2 н/о н/о +14.6 -2.3 31 +15 +15 1028.7 1002.0
12 22.09 ЮЗ 2 н/о н/о +14.2 -1.4 34 +14 +14 1028.9 1002.2
13 22.09 З 2 н/о н/о +12.4 -2.6 35 +12 +12 1029.4 1002.7

 

Местоположение метеостанции Кубер-Педи (Южная Австралия, Австралия): широта -29.03 долгота 134.71 высота над уровнем моря 226 м.

В архиве по умолчанию представлена погода в Кубер-Педи за последнюю неделю. Архивные данные за месяц целиком и за предыдущие месяцы, начиная с января 2011 года, Вы можете получить, выбрав интересующий диапазон дат из раскрывающегося списка и нажав кнопку "Ввод!".


*Определитесь, кто Вы:
робот инопланетянин человек

Внимание! Время в таблицах - всемирное. Для получения местного времени необходимо прибавить поправку, которая равна 9.5 ч.

Смотрите также архив погоды в соседних городах и на ближайших метеорологических станциях:

Погода в Однадатте (Южная Австралия, Австралия) (180 км)
Погода в Таркуле (Южная Австралия, Австралия) (188 км)
Погода в Олимпик Дэм (Южная Австралия, Австралия) (264 км)
Погода на Аэродроме Вумера (Южная Австралия, Австралия) (311 км)
Погода в Марри (Южная Австралия, Австралия) (332 км)
Погода в Сидуне (Южная Австралия, Австралия) (358 км)
Погода в Эрнабелле (Южная Австралия, Австралия) (395 км)
Погода в Ли-Крике (Южная Австралия, Австралия) (398 км)
Погода в Миннипа Пирса (Южная Австралия, Австралия) (427 км)
Погода в Уудинне (Южная Австралия, Австралия) (453 км)

Пояснения к столбцам:

Ветер - указаны скорость ветра в м/с - средняя за 10 мин, порывы в срок и между сроками (в фигурных скобках) и направление, откуда дует ветер: С - северный, СВ - северо-восточный, В - восточный, ЮВ - юго-восточный, Ю - южный, ЮЗ - юго-западный, З - западный, СЗ - северо-западный.
Видимость - горизонтальная дальность видимости в метрах или километрах. При видимости от 1 до 10 км при отсутствии осадков обычно наблюдается дымка, при ухудшении видимости до 1 км и менее - туман. В сухую погоду видимость может ухудшаться дымом, пылью или мглою.
Явления - указаны атмосферные явления, наблюдавшиеся в срок или в последний час перед сроком; фигурными скобками обозначены явления, наблюдавшиеся между сроками (за 1-3 часа до срока); квадратными скобками обозначены град или гололедные отложения с указанием их диаметра в мм.
Облачность - указаны через наклонную черту общая и нижняя облачность в баллах и высота нижней границы облаков в метрах; квадратными скобками обозначены формы облаков: Ci - перистые, Cs - перисто-слоистые, Cc - перисто-кучевые, Ac - высококучевые, As - высокослоистые, Sc - слоисто-кучевые, Ns - слоисто-дождевые, Cu - кучевые, Cb - кучево-дождевые. Подробнее классификацию облаков см. в Атласе облаков (PDF).
T - Температура воздуха - температура, измеренная на высоте 2 м над землей.
Td - Температура точки росы - температура, при понижении до которой содержащийся в воздухе водяной пар достигнет насыщения.
f - Относительная влажность воздуха - влажноcть воздуха, измеренная на высоте 2 м над землей.
Te - Эффективная температура - температура, которую ощущает одетый по сезону человек в тени. Характеристика душности погоды. При расчете учитывается влияние влажности воздуха и скорости ветра на теплоощущения человека.
Tes - Эффективная температура на солнце - температура, которую ощущает человек, с поправкой на солнечный нагрев. Характеристика знойности погоды. Зависит от высоты солнца над горизонтом, облачности и скорости ветра. Ночью, в пасмурную погоду, а также при ветре 12 м/с и более поправка равна нулю.
P - Атмосферное давление - приведенное к уровню моря атмосферное давление.
Po - Атмосферное давление - измеренное на уровне метеостанции атмосферное давление.
Tmin - Минимальная температура - минимум температуры воздуха на высоте 2 м над землей.
Tmax - Максимальная температура - максимум температуры воздуха на высоте 2 м над землей.
R - Количество осадков - Количество выпавших осадков за период времени, мм. При наведении курсора мыши на число - период времени, за который выпало указанное количество осадков.
R24 - Количество осадков - Количество выпавших осадков за 24 часа, мм.
S - Снежный покров - Высота снежного покрова, см. При наведении курсора мыши на число - состояние снежного покрова и степень покрытия местности в баллах.